Current weather by "City, St" or "zip code"  
 
Advertise Here

Current Conditions: Orlando / Sanford Airport, FL

Fair


64.0 F

Last Updated on Nov 23 2020, 9:53 pm EST
Humidity: 78%
Wind Speed: NE 6.9 mph
Barometer 30.15 in
Dewpoint: 57.0 F
Visibility: 10.00 mi
Precip: --
Heat Index: NA
Wind Chill: NA
Current conditions at:

Orlando / Sanford Airport, FL (KSFB)

Lat: 28.78333 Lon: 81.25

Local Radar Image active severe weather and emergency alerts image image weather storm and storm spotter reports image weather observation monitoring service image
Local
Radar
Active
Alerts
Storm Reports Obs
Monitoring

Sign-up For Email & Text Message Weather Alert Notification Services


Advertise Here

Observation History for Orlando / Sanford Airport, FL


Time Wind
(mph)
Vis
(mi)
Weather Precip (in) Temperature (F) Relative
Humidity
Wind
Chill
(F)
Heat
Index
(F)
Pressure
Air Dwpt altimeter
(in)
sea level
(mb)
Rmks
9:53 pm EST NE 6.9 10.00 Fair -- 64.0 57.0 78% NA NA 30.15 1020.9
8:53 pm EST N 5.8 10.00 Fair -- 65.0 57.9 78% NA NA 30.14 1020.6
7:53 pm EST N 6.9 10.00 Fair -- 65.0 57.0 76% NA NA 30.13 1020.0
6:53 pm EST NE 4.6 10.00 Fair -- 66.0 55.9 70% NA NA 30.12 1019.8
4:53 pm EST NE 15.0 10.00 Fair -- 72.0 54.0 53% NA NA 30.08 1018.4
2:53 pm EST NE 15.0 10.00 Fair -- 77.0 55.9 48% NA NA 30.06 1017.6
1:53 pm EST N 12.7 10.00 A Few Clouds -- 77.0 55.9 48% NA NA 30.06 1017.6
12:53 pm EST N 12.7 10.00 A Few Clouds -- 76.0 57.0 52% NA NA 30.07 1018.2
11:53 am EST N 15.0 G 20.7 10.00 A Few Clouds -- 75.0 59.0 58% NA NA 30.09 1018.9
10:53 am EST N 13.8 10.00 Fair -- 73.0 61.0 66% NA NA 30.10 1019.3
9:53 am EST N 12.7 10.00 Partly Cloudy -- 70.0 62.1 76% NA NA 30.10 1019.2
8:53 am EST N 12.7 10.00 Partly Cloudy -- 67.0 63.0 87% NA NA 30.09 1018.8
7:53 am EST NW 9.2 10.00 Mostly Cloudy -- 67.0 63.0 87% NA NA 30.08 1018.5
6:53 am EST N 5.8 10.00 Fair -- 66.0 63.0 90% NA NA 30.06 1017.9
5:53 am EST NW 9.2 10.00 Mostly Cloudy -- 67.0 64.0 91% NA NA 30.05 1017.5
4:53 am EST N 9.2 10.00 Overcast -- 68.0 64.0 87% NA NA 30.04 1016.9
3:53 am EST N 8.1 10.00 Overcast -- 68.0 64.9 90% NA NA 30.04 1017.0
2:53 am EST N 8.1 10.00 Overcast -- 68.0 64.9 90% NA NA 30.04 1017.3
1:53 am EST NW 5.8 10.00 Overcast -- 68.0 66.0 93% NA NA 30.05 1017.5
12:53 am EST N 8.1 10.00 Overcast -- 68.0 64.9 90% NA NA 30.06 1017.9
11:53 pm EST NW 5.8 10.00 Overcast -- 69.0 66.0 90% NA NA 30.08 1018.5
10:53 pm EST N 6.9 10.00 Overcast -- 69.0 66.0 90% NA NA 30.08 1018.4

Regional Weather Observation


Orlando / Sanford Airport, FL (KSFB)

Fair
64.0 F

Leesburg International Airport, FL (KLEE)

Fair
62.0 F

Daytona Beach International Airport, FL (KDAB)

A Few Clouds
67.0 F

Ormond Beach, Ormond Beach Municipal Airport, FL (KOMN)

Fair
66.0 F

Orlando Executive Airport, FL (KORL)

Fair
65.0 F

Flagler County Airport, FL (KXFL)

Fair
70.0 F